Flag for U.S.A. Weather past 2 weeks in Vallejo, California, U.S.A.

Now
56 °F

Sunny.


Feels Like: 56 °F
Forecast: 51 / 69 °F
Wind: No wind

Location: Napa County Airport


UV Index: 5 (Moderate)

Visibility: 10 mi


Pressure: 29.89 "Hg

Humidity: 81%

Dew point: 50 °F

Location of VallejoLocation

Historic Weather in Vallejo

°F

Vallejo temperature yesterday

Maximum temperature yesterday: 68 °F (at 12:54 PM)
Minimum temperature yesterday: 45 °F (at 5:54 AM)
Average temperature yesterday: 58 °F

Past Weeks' High & Low Weather Summary

 TemperatureHumidityPressure
High80 °F (Apr 8, 2:54 PM)100% (Apr 4, 4:54 AM)30.21 "Hg (Apr 4, 4:54 AM)
Low39 °F (Apr 5, 6:54 AM)41% (Apr 8, 4:54 PM)29.77 "Hg (Apr 17, 6:54 PM)
Average56 °F83%29.97 "Hg
* Reported Apr 3 8:54 AM — Apr 18 8:54 AM, Vallejo, Weather by CustomWeather, © 2014

Note: Actual official high and low records may vary slightly from our data, if they occured in-between our weather recording intervals... More about our weather records

Advertising

Historic Weather Conditions — Data for Previous 24 hours

 ConditionsComfort  
Time TempWeatherWind HumidityBarometerVisibility
8:54 AM
Apr 18
56 °FSunny.No wind81%29.89 "Hg10 mi
7:54 AM52 °FSunny.No wind89%29.88 "Hg10 mi
6:54 AM47 °FClear.No wind97%29.87 "Hg10 mi
5:54 AM46 °FClear.No wind96%29.85 "Hg10 mi
4:54 AM46 °FClear.6 mph96%29.84 "Hg10 mi
3:54 AM47 °FClear.No wind97%29.84 "Hg10 mi
2:54 AM48 °FClear.5 mph93%29.83 "Hg10 mi
1:54 AM49 °FClear.5 mph93%29.83 "Hg10 mi
12:54 AM52 °FClear.3 mph83%29.83 "Hg10 mi
11:54 PM
Apr 17
52 °FClear.6 mph83%29.83 "Hg10 mi
10:54 PM56 °FClear.7 mph75%29.82 "Hg10 mi
9:54 PM59 °FClear.14 mph67%29.80 "Hg10 mi
8:54 PM62 °FClear.12 mph58%29.79 "Hg10 mi
7:54 PM62 °FSunny.13 mph70%29.77 "Hg10 mi
6:54 PM65 °FSunny.12 mph68%29.77 "Hg10 mi
5:54 PM67 °FSunny.13 mph66%29.77 "Hg10 mi
4:54 PM68 °FSunny.13 mph63%29.77 "Hg10 mi
3:54 PM68 °FSunny.16 mph68%29.78 "Hg10 mi
2:54 PM67 °FSunny.17 mph68%29.80 "Hg10 mi
1:54 PM68 °FSunny.16 mph68%29.81 "Hg10 mi
12:54 PM68 °FSunny.10 mph65%29.81 "Hg10 mi
11:54 AM65 °FSunny.10 mph73%29.82 "Hg10 mi
10:54 AM63 °FSunny.9 mph73%29.83 "Hg10 mi
Weather by CustomWeather, © 2014

See weather overview